Location: Grums
(59.3529°N, 13.1129°E)
Time: 13:14:11
(UTC+02:00)

Envisat - Pass Details

Date: 30 September 2021
Orbit: 764 x 766 km, 98.2° (Epoch: 27 October)

Event Time Altitude Azimuth Distance (km) Brightness Sun altitude
Rises 04:27:53 0° 25° (NNE) 3,248 7.2 -20.6°
Reaches altitude 10° 04:32:09 10° 60° (ENE) 2,314 6.7 -20.2°
Maximum altitude 04:33:40 11° 78° (ENE) 2,226 6.4 -20.0°
Drops below altitude 10° 04:35:11 10° 95° (E) 2,309 6.2 -19.8°
Sets 04:39:25 0° 130° (SE) 3,227 6.5 -19.4°
